This demonstration page uses our WeatherBlox Daily Observations layout. Learn more.

Left ArrowRight Arrow

44.89941, -97.11507

Hourly Observations for May 17, 2022

Temp ( °F °C ) Dew Point ( °F °C ) Humidity (%) Winds ( mph kmh ) Pressure ( in mb ) Visibility ( mi km ) Precip ( " mm )
12:53 am 00:53 Cloudy 58 14.4 40 4.4 51 51 E 10 17 29.95 1014 10 16 0.00 0.00
1:53 am 01:53 Cloudy 58 14.4 39 3.9 50 50 E 9 15 29.95 1014 10 16 0.00 0.00
2:53 am 02:53 Cloudy 53 11.7 43 6.1 69 69 E 6 9 29.98 1015 10 16 0.06 1.52
3:53 am 03:53 Cloudy with Rain 50 10 44 6.7 80 80 ENE 7 11 29.98 1015 5 8 0.06 1.52
4:53 am 04:53 Cloudy 51 10.6 44 6.7 77 77 SE 6 9 29.96 1015 10 16 0.02 0.51
5:53 am 05:53 Cloudy 50 10 45 7.2 83 83 SE 10 17 29.94 1014 10 16 0.01 0.25
6:53 am 06:53 Cloudy with Light Rain 49 9.4 46 7.8 90 90 S 10 17 29.97 1015 7 11 0.06 1.52
7:53 am 07:53 Cloudy with Light Rain 49 9.4 47 8.3 93 93 SSE 13 20 29.95 1014 10 16 0.10 2.54
8:53 am 08:53 Partly Cloudy 51 10.6 48 8.9 89 89 SE 9 15 29.93 1013 10 16 0.00 0.00
9:53 am 09:53 Mostly Cloudy 58 14.4 51 10.6 78 78 SE 10 17 29.93 1013 10 16 0.00 0.00
10:53 am 10:53 Sunny 62 16.7 53 11.7 73 73 ESE 13 20 29.90 1013 10 16 0.00 0.00
11:53 am 11:53 Cloudy 63 17.2 53 11.7 70 70 ESE 13 20 29.91 1013 10 16 0.00 0.00
12:53 pm 12:53 Mostly Cloudy 61 16.1 53 11.7 75 75 E 14 22 29.91 1013 10 16 0.00 0.00
1:53 pm 13:53 Cloudy 59 15 53 11.7 81 81 E 9 15 29.90 1013 10 16 0.00 0.00
2:53 pm 14:53 Cloudy 59 15 53 11.7 81 81 ESE 10 17 29.91 1013 10 16 0.00 0.00
3:53 pm 15:53 Cloudy 58 14.4 53 11.7 84 84 ESE 3 6 29.93 1014 10 16 0.00 0.00
4:09 pm 16:09 Cloudy with Light Rain 57 13.9 54 12.2 90 90 E 7 11 29.89 1012 2 3 0.01 0.25
4:25 pm 16:25 Cloudy with Light Rain 57 13.9 55 12.8 93 93 ESE 9 15 29.88 1012 3 5 0.04 1.02
4:53 pm 16:53 Cloudy with Light Rain 57 13.9 55 12.8 93 93 E 9 15 29.91 1013 9 14 0.05 1.27
5:53 pm 17:53 Cloudy 56 13.3 53 11.7 90 90 E 12 19 29.90 1013 10 16 0.02 0.51
6:53 pm 18:53 Cloudy 56 13.3 52 11.1 87 87 ENE 6 9 29.92 1013 10 16 0.00 0.00
7:53 pm 19:53 Cloudy 55 12.8 52 11.1 90 90 ENE 9 15 29.91 1013 10 16 0.00 0.00
8:33 pm 20:33 Cloudy 54 12.2 52 11.1 93 93 ENE 12 19 29.88 1012 10 16 0.00 0.00
8:53 pm 20:53 Cloudy 54 12.2 52 11.1 93 93 E 10 17 29.89 1012 10 16 0.00 0.00
9:53 pm 21:53 Cloudy 54 12.2 51 10.6 90 90 E 10 17 29.91 1013 10 16 0.00 0.00
10:53 pm 22:53 Cloudy 54 12.2 52 11.1 93 93 ESE 10 17 29.91 1013 10 16 0.00 0.00
11:07 pm 23:07 Cloudy 54 12.2 52 11.1 93 93 ESE 9 15 29.90 1013 10 16 0.00 0.00
11:53 pm 23:53 Mostly Clear 53 11.7 51 10.6 93 93 E 8 13 29.90 1013 10 16 0.00 0.00

Powered by AerisWeather